Wetterdaten: Montag, 28.10.2013
Datum Zeit Temperatur Luftfeuchte Luftdruck Regen Wind Richtung Richtung Taupunkt Windchill Windben
28.10.2013 00:00 10,6 C 93 % 1017,9 hPa 0,0 l/m 2,9 km/h (1 Bft) O 90 9,5 C 10,8 C 0,0 km/h (0 Bft)
28.10.2013 00:05 10,7 C 93 % 1017,8 hPa 0,0 l/m 2,9 km/h (1 Bft) NO 45 9,6 C 10,7 C 3,9 km/h (1 Bft)
28.10.2013 00:10 10,7 C 94 % 1017,8 hPa 0,0 l/m 3,5 km/h (1 Bft) O-NO 67 9,8 C 10,8 C 3,5 km/h (1 Bft)
28.10.2013 00:15 10,6 C 94 % 1017,8 hPa 0,0 l/m 2,6 km/h (1 Bft) O-NO 67 9,7 C 10,8 C 2,3 km/h (1 Bft)
28.10.2013 00:20 10,5 C 94 % 1017,8 hPa 0,0 l/m 2,1 km/h (1 Bft) NO 45 9,6 C 10,7 C 1,8 km/h (1 Bft)
28.10.2013 00:25 10,2 C 94 % 1017,8 hPa 0,0 l/m 1,1 km/h (1 Bft) S 180 9,3 C 10,5 C 0,0 km/h (0 Bft)
28.10.2013 00:30 10,1 C 94 % 1017,8 hPa 0,0 l/m 0,5 km/h (0 Bft) S-SO 157 9,2 C 10,3 C 0,0 km/h (0 Bft)
28.10.2013 00:35 10,0 C 94 % 1017,8 hPa 0,0 l/m 0,2 km/h (0 Bft) O 90 9,1 C 10,3 C 0,0 km/h (0 Bft)
28.10.2013 00:40 10,3 C 94 % 1017,8 hPa 0,0 l/m 0,8 km/h (0 Bft) N-NO 22 9,4 C 10,3 C 3,9 km/h (1 Bft)
28.10.2013 00:45 10,5 C 94 % 1017,4 hPa 0,0 l/m 1,6 km/h (1 Bft) O-SO 112 9,6 C 10,5 C 2,7 km/h (1 Bft)
28.10.2013 00:50 10,5 C 94 % 1017,4 hPa 0,0 l/m 1,4 km/h (1 Bft) NO 45 9,6 C 10,6 C 5,5 km/h (1 Bft)
28.10.2013 00:55 10,6 C 94 % 1017,4 hPa 0,0 l/m 1,3 km/h (1 Bft) NO 45 9,7 C 10,7 C 2,4 km/h (1 Bft)
28.10.2013 00:58 10,6 C 94 % 1017,4 hPa 0,0 l/m 1,6 km/h (1 Bft) NO 45 9,7 C 10,8 C 0,0 km/h (0 Bft)
28.10.2013 01:00 10,6 C 94 % 1017,4 hPa 0,0 l/m 1,6 km/h (1 Bft) NO 45 9,7 C 10,8 C 0,0 km/h (0 Bft)
28.10.2013 01:05 10,6 C 94 % 1017,6 hPa 0,0 l/m 1,9 km/h (1 Bft) O 90 9,7 C 10,8 C 1,6 km/h (1 Bft)
28.10.2013 01:10 10,6 C 94 % 1017,6 hPa 0,0 l/m 1,8 km/h (1 Bft) NO 45 9,7 C 10,8 C 2,6 km/h (1 Bft)
28.10.2013 01:15 10,7 C 94 % 1017,6 hPa 0,0 l/m 2,1 km/h (1 Bft) NO 45 9,8 C 10,8 C 5,6 km/h (1 Bft)
28.10.2013 01:20 10,7 C 94 % 1017,6 hPa 0,0 l/m 2,4 km/h (1 Bft) N-NW 337 9,8 C 10,9 C 7,4 km/h (2 Bft)
28.10.2013 01:25 10,6 C 94 % 1017,6 hPa 0,0 l/m 1,8 km/h (1 Bft) NO 45 9,7 C 10,9 C 0,0 km/h (0 Bft)
28.10.2013 01:30 10,7 C 94 % 1017,6 hPa 0,0 l/m 1,8 km/h (1 Bft) NO 45 9,8 C 10,8 C 4,8 km/h (1 Bft)
28.10.2013 01:35 10,8 C 94 % 1017,6 hPa 0,0 l/m 2,9 km/h (1 Bft) S-SO 157 9,9 C 11,0 C 7,9 km/h (2 Bft)
28.10.2013 01:40 10,8 C 94 % 1017,6 hPa 0,0 l/m 3,5 km/h (1 Bft) O 90 9,9 C 11,1 C 3,4 km/h (1 Bft)
28.10.2013 01:45 11,1 C 94 % 1017,9 hPa 0,0 l/m 2,1 km/h (1 Bft) S 180 10,2 C 11,2 C 1,6 km/h (1 Bft)
28.10.2013 01:50 11,1 C 94 % 1017,9 hPa 0,0 l/m 2,4 km/h (1 Bft) S 180 10,2 C 11,4 C 5,1 km/h (1 Bft)
28.10.2013 01:55 11,1 C 94 % 1017,9 hPa 0,0 l/m 3,4 km/h (1 Bft) S-SO 157 10,2 C 11,7 C 4,8 km/h (1 Bft)
28.10.2013 02:00 11,4 C 94 % 1017,9 hPa 0,0 l/m 4,5 km/h (1 Bft) S 180 10,5 C 11,7 C 9,3 km/h (2 Bft)
28.10.2013 02:05 11,5 C 93 % 1017,7 hPa 0,0 l/m 4,5 km/h (1 Bft) S 180 10,4 C 11,8 C 5,5 km/h (1 Bft)
28.10.2013 02:10 11,3 C 93 % 1017,7 hPa 0,0 l/m 4,3 km/h (1 Bft) O-NO 67 10,2 C 11,8 C 3,7 km/h (1 Bft)
28.10.2013 02:15 11,3 C 93 % 1017,7 hPa 0,0 l/m 3,2 km/h (1 Bft) S 180 10,2 C 11,8 C 3,9 km/h (1 Bft)
28.10.2013 02:20 11,2 C 93 % 1017,7 hPa 0,0 l/m 2,3 km/h (1 Bft) W 270 10,1 C 11,8 C 2,1 km/h (1 Bft)
28.10.2013 02:25 11,3 C 92 % 1017,3 hPa 0,0 l/m 3,4 km/h (1 Bft) SO 135 10,0 C 11,8 C 12,2 km/h (2 Bft)
28.10.2013 02:30 11,4 C 92 % 1017,3 hPa 0,0 l/m 3,4 km/h (1 Bft) O-NO 67 10,1 C 11,9 C 4,3 km/h (1 Bft)
28.10.2013 02:35 11,4 C 92 % 1017,3 hPa 0,0 l/m 3,1 km/h (1 Bft) O-NO 67 10,1 C 11,8 C 5,8 km/h (2 Bft)
28.10.2013 02:40 11,2 C 92 % 1017,3 hPa 0,0 l/m 2,7 km/h (1 Bft) N 360 9,9 C 11,7 C 1,6 km/h (1 Bft)
28.10.2013 02:45 10,7 C 91 % 1017,2 hPa 0,0 l/m 1,9 km/h (1 Bft) SO 135 9,3 C 11,3 C 1,9 km/h (1 Bft)
28.10.2013 02:50 10,6 C 91 % 1017,2 hPa 0,0 l/m 1,3 km/h (1 Bft) NO 45 9,2 C 11,1 C 0,0 km/h (0 Bft)
28.10.2013 02:55 10,6 C 91 % 1017,2 hPa 0,0 l/m 1,1 km/h (1 Bft) O 90 9,2 C 11,0 C 0,0 km/h (0 Bft)
28.10.2013 03:00 10,7 C 91 % 1017,2 hPa 0,0 l/m 1,1 km/h (1 Bft) O-SO 112 9,3 C 11,0 C 0,0 km/h (0 Bft)
28.10.2013 03:05 10,7 C 91 % 1017,3 hPa 0,0 l/m 0,8 km/h (0 Bft) O-SO 112 9,3 C 11,0 C 1,6 km/h (1 Bft)
28.10.2013 03:10 10,7 C 91 % 1017,3 hPa 0,0 l/m 1,3 km/h (1 Bft) O-NO 67 9,3 C 10,9 C 1,6 km/h (1 Bft)
28.10.2013 03:15 10,4 C 91 % 1017,3 hPa 0,0 l/m 1,3 km/h (1 Bft) O 90 9,0 C 10,7 C 0,0 km/h (0 Bft)
28.10.2013 03:20 10,3 C 91 % 1017,3 hPa 0,0 l/m 1,3 km/h (1 Bft) NO 45 8,9 C 10,6 C 3,4 km/h (1 Bft)
28.10.2013 03:25 10,3 C 90 % 1017,1 hPa 0,0 l/m 1,8 km/h (1 Bft) NO 45 8,7 C 10,6 C 3,4 km/h (1 Bft)
28.10.2013 03:30 10,3 C 91 % 1017,1 hPa 0,0 l/m 1,9 km/h (1 Bft) O-NO 67 8,9 C 10,5 C 4,3 km/h (1 Bft)
28.10.2013 03:35 10,3 C 91 % 1017,1 hPa 0,0 l/m 2,4 km/h (1 Bft) O-NO 67 8,9 C 10,3 C 3,4 km/h (1 Bft)
28.10.2013 03:40 10,3 C 91 % 1017,1 hPa 0,0 l/m 2,7 km/h (1 Bft) O 90 8,9 C 10,3 C 2,4 km/h (1 Bft)
28.10.2013 03:45 10,2 C 90 % 1017,1 hPa 0,0 l/m 2,7 km/h (1 Bft) O-SO 112 8,6 C 10,3 C 0,0 km/h (0 Bft)
28.10.2013 03:50 9,9 C 90 % 1017,1 hPa 0,0 l/m 1,8 km/h (1 Bft) NO 45 8,3 C 10,1 C 0,0 km/h (0 Bft)
28.10.2013 03:55 9,3 C 90 % 1017,1 hPa 0,0 l/m 0,5 km/h (0 Bft) O-NO 67 7,7 C 9,7 C 0,0 km/h (0 Bft)
28.10.2013 04:00 9,3 C 90 % 1017,1 hPa 0,0 l/m 0,3 km/h (0 Bft) NO 45 7,7 C 9,5 C 0,0 km/h (0 Bft)
28.10.2013 04:05 9,3 C 90 % 1016,8 hPa 0,0 l/m 0,3 km/h (0 Bft) O-SO 112 7,7 C 9,3 C 0,0 km/h (0 Bft)
28.10.2013 04:10 9,3 C 90 % 1016,8 hPa 0,0 l/m 0,3 km/h (0 Bft) O 90 7,7 C 9,3 C 0,0 km/h (0 Bft)
28.10.2013 04:15 9,1 C 90 % 1016,8 hPa 0,0 l/m 0,0 km/h (0 Bft) O-NO 67 7,5 C 9,4 C 0,0 km/h (0 Bft)
28.10.2013 04:20 9,4 C 90 % 1016,8 hPa 0,0 l/m 0,8 km/h (0 Bft) NO 45 7,8 C 9,5 C 3,7 km/h (1 Bft)
28.10.2013 04:25 9,7 C 91 % 1016,4 hPa 0,0 l/m 1,8 km/h (1 Bft) NO 45 8,3 C 9,9 C 1,8 km/h (1 Bft)
28.10.2013 04:30 9,9 C 91 % 1016,4 hPa 0,0 l/m 1,3 km/h (1 Bft) NO 45 8,5 C 10,1 C 0,0 km/h (0 Bft)
28.10.2013 04:35 9,6 C 91 % 1016,4 hPa 0,0 l/m 0,2 km/h (0 Bft) N-NW 337 8,2 C 10,1 C 1,6 km/h (1 Bft)
28.10.2013 04:40 10,0 C 91 % 1016,4 hPa 0,0 l/m 1,0 km/h (0 Bft) N 360 8,6 C 10,1 C 2,6 km/h (1 Bft)
28.10.2013 04:45 9,7 C 91 % 1016,2 hPa 0,0 l/m 1,3 km/h (1 Bft) SO 135 8,3 C 10,2 C 0,0 km/h (0 Bft)
28.10.2013 04:50 9,9 C 91 % 1016,2 hPa 0,0 l/m 0,6 km/h (0 Bft) O 90 8,5 C 10,2 C 0,0 km/h (0 Bft)
28.10.2013 04:55 9,9 C 91 % 1016,2 hPa 0,0 l/m 0,5 km/h (0 Bft) S-SO 157 8,5 C 10,4 C 2,1 km/h (1 Bft)
28.10.2013 05:00 10,0 C 91 % 1016,2 hPa 0,0 l/m 0,5 km/h (0 Bft) S-SO 157 8,6 C 10,5 C 0,0 km/h (0 Bft)
28.10.2013 05:05 9,8 C 91 % 1015,9 hPa 0,0 l/m 0,2 km/h (0 Bft) O 90 8,4 C 10,4 C 0,0 km/h (0 Bft)
28.10.2013 05:10 9,6 C 91 % 1015,9 hPa 0,0 l/m 0,0 km/h (0 Bft) O 90 8,2 C 10,3 C 0,0 km/h (0 Bft)
28.10.2013 05:15 9,8 C 91 % 1015,9 hPa 0,0 l/m 0,0 km/h (0 Bft) O 90 8,4 C 10,3 C 0,0 km/h (0 Bft)
28.10.2013 05:20 10,0 C 91 % 1015,9 hPa 0,0 l/m 0,0 km/h (0 Bft) O 90 8,6 C 10,4 C 0,0 km/h (0 Bft)
28.10.2013 05:25 9,8 C 91 % 1015,6 hPa 0,0 l/m 0,0 km/h (0 Bft) S-SW 202 8,4 C 10,3 C 0,0 km/h (0 Bft)
28.10.2013 05:30 10,0 C 91 % 1015,6 hPa 0,0 l/m 0,0 km/h (0 Bft) S-SW 202 8,6 C 10,3 C 0,0 km/h (0 Bft)
28.10.2013 05:35 10,1 C 91 % 1015,6 hPa 0,0 l/m 0,5 km/h (0 Bft) N-NW 337 8,7 C 10,5 C 1,6 km/h (1 Bft)
28.10.2013 05:40 10,1 C 91 % 1015,6 hPa 0,0 l/m 0,8 km/h (0 Bft) NO 45 8,7 C 10,6 C 1,8 km/h (1 Bft)
28.10.2013 05:45 10,3 C 91 % 1015,4 hPa 0,0 l/m 1,3 km/h (1 Bft) NO 45 8,9 C 10,8 C 2,9 km/h (1 Bft)
28.10.2013 05:50 10,5 C 91 % 1015,4 hPa 0,0 l/m 1,1 km/h (1 Bft) W-SW 247 9,1 C 11,0 C 0,0 km/h (0 Bft)
28.10.2013 05:55 10,6 C 90 % 1015,4 hPa 0,0 l/m 0,8 km/h (0 Bft) S-SW 202 9,0 C 11,2 C 0,0 km/h (0 Bft)
28.10.2013 05:59 10,6 C 90 % 1015,4 hPa 0,0 l/m 1,0 km/h (0 Bft) S-SW 202 9,0 C 11,2 C 0,0 km/h (0 Bft)
28.10.2013 06:00 10,6 C 90 % 1015,4 hPa 0,0 l/m 1,0 km/h (0 Bft) S-SW 202 9,0 C 11,2 C 0,0 km/h (0 Bft)
28.10.2013 06:05 10,7 C 90 % 1015,2 hPa 0,0 l/m 1,1 km/h (1 Bft) W-NW 292 9,1 C 11,4 C 0,0 km/h (0 Bft)
28.10.2013 06:10 10,9 C 89 % 1015,2 hPa 0,0 l/m 0,6 km/h (0 Bft) N 360 9,2 C 11,5 C 0,0 km/h (0 Bft)
28.10.2013 06:15 10,8 C 89 % 1015,2 hPa 0,0 l/m 1,0 km/h (0 Bft) W-NW 292 9,1 C 11,6 C 0,0 km/h (0 Bft)
28.10.2013 06:20 10,9 C 88 % 1015,2 hPa 0,0 l/m 0,8 km/h (0 Bft) S-SW 202 9,0 C 11,7 C 0,0 km/h (0 Bft)
28.10.2013 06:25 10,7 C 88 % 1014,9 hPa 0,0 l/m 0,5 km/h (0 Bft) W-SW 247 8,8 C 11,5 C 3,1 km/h (1 Bft)
28.10.2013 06:30 10,6 C 88 % 1014,9 hPa 0,0 l/m 0,8 km/h (0 Bft) O-SO 112 8,7 C 11,5 C 0,0 km/h (0 Bft)
28.10.2013 06:35 10,2 C 88 % 1014,9 hPa 0,0 l/m 1,1 km/h (1 Bft) O-SO 112 8,3 C 11,3 C 1,6 km/h (1 Bft)
28.10.2013 06:40 10,3 C 88 % 1014,9 hPa 0,0 l/m 1,0 km/h (0 Bft) NO 45 8,4 C 11,1 C 2,3 km/h (1 Bft)
28.10.2013 06:45 10,2 C 87 % 1014,6 hPa 0,0 l/m 1,3 km/h (1 Bft) W-NW 292 8,1 C 10,8 C 3,1 km/h (1 Bft)
28.10.2013 06:50 10,0 C 87 % 1014,6 hPa 0,0 l/m 1,3 km/h (1 Bft) N 360 7,9 C 10,7 C 3,1 km/h (1 Bft)
28.10.2013 06:55 10,0 C 87 % 1014,6 hPa 0,0 l/m 1,4 km/h (1 Bft) S-SO 157 7,9 C 10,7 C 0,0 km/h (0 Bft)
28.10.2013 07:00 10,0 C 87 % 1014,6 hPa 0,0 l/m 1,4 km/h (1 Bft) W 270 7,9 C 10,7 C 2,4 km/h (1 Bft)
28.10.2013 07:05 9,9 C 87 % 1014,5 hPa 0,0 l/m 1,3 km/h (1 Bft) S 180 7,8 C 10,8 C 0,0 km/h (0 Bft)
28.10.2013 07:10 10,1 C 87 % 1014,5 hPa 0,0 l/m 1,3 km/h (1 Bft) S 180 8,0 C 10,8 C 0,0 km/h (0 Bft)
28.10.2013 07:15 10,2 C 87 % 1014,5 hPa 0,0 l/m 1,3 km/h (1 Bft) N-NO 22 8,1 C 10,8 C 0,0 km/h (0 Bft)
28.10.2013 07:20 9,9 C 87 % 1014,5 hPa 0,0 l/m 1,0 km/h (0 Bft) NO 45 7,8 C 10,7 C 2,6 km/h (1 Bft)
28.10.2013 07:25 9,7 C 87 % 1014,4 hPa 0,0 l/m 1,0 km/h (0 Bft) O 90 7,6 C 10,4 C 2,6 km/h (1 Bft)
28.10.2013 07:30 9,8 C 87 % 1014,4 hPa 0,0 l/m 1,6 km/h (1 Bft) NO 45 7,7 C 10,4 C 2,6 km/h (1 Bft)
28.10.2013 07:35 9,3 C 87 % 1014,4 hPa 0,0 l/m 2,1 km/h (1 Bft) W-SW 247 7,2 C 10,3 C 3,4 km/h (1 Bft)
28.10.2013 07:40 9,5 C 88 % 1014,4 hPa 0,0 l/m 1,9 km/h (1 Bft) N-NW 337 7,6 C 10,3 C 2,7 km/h (1 Bft)
28.10.2013 07:45 9,8 C 88 % 1014,0 hPa 0,0 l/m 2,3 km/h (1 Bft) N-NW 337 7,9 C 10,6 C 0,0 km/h (0 Bft)
28.10.2013 07:50 9,6 C 88 % 1014,0 hPa 0,0 l/m 1,8 km/h (1 Bft) NW 315 7,7 C 10,7 C 0,0 km/h (0 Bft)
28.10.2013 07:55 9,8 C 88 % 1014,0 hPa 0,0 l/m 1,4 km/h (1 Bft) O-SO 112 7,9 C 10,8 C 0,0 km/h (0 Bft)
28.10.2013 08:00 9,8 C 88 % 1014,0 hPa 0,0 l/m 1,6 km/h (1 Bft) W-SW 247 7,9 C 10,8 C 2,3 km/h (1 Bft)
28.10.2013 08:05 9,8 C 88 % 1013,8 hPa 0,0 l/m 1,1 km/h (1 Bft) W-NW 292 7,9 C 11,0 C 3,7 km/h (1 Bft)
28.10.2013 08:10 10,1 C 88 % 1013,8 hPa 0,0 l/m 1,6 km/h (1 Bft) N 360 8,2 C 11,1 C 6,3 km/h (2 Bft)
28.10.2013 08:15 10,3 C 87 % 1013,8 hPa 0,0 l/m 2,4 km/h (1 Bft) NO 45 8,2 C 11,4 C 2,7 km/h (1 Bft)
28.10.2013 08:20 10,5 C 87 % 1013,8 hPa 0,0 l/m 2,1 km/h (1 Bft) N-NO 22 8,4 C 11,5 C 2,1 km/h (1 Bft)
28.10.2013 08:25 10,2 C 86 % 1013,3 hPa 0,0 l/m 1,1 km/h (1 Bft) NW 315 8,0 C 11,5 C 0,0 km/h (0 Bft)
28.10.2013 08:30 10,4 C 86 % 1013,3 hPa 0,0 l/m 0,6 km/h (0 Bft) S 180 8,2 C 11,6 C 1,6 km/h (1 Bft)
28.10.2013 08:35 10,7 C 86 % 1013,3 hPa 0,0 l/m 0,6 km/h (0 Bft) O-SO 112 8,5 C 11,9 C 0,0 km/h (0 Bft)
28.10.2013 08:40 11,1 C 85 % 1013,3 hPa 0,0 l/m 1,9 km/h (1 Bft) N 360 8,7 C 12,2 C 3,1 km/h (1 Bft)
28.10.2013 08:45 11,6 C 85 % 1013,2 hPa 0,0 l/m 1,8 km/h (1 Bft) N-NW 337 9,2 C 12,5 C 0,0 km/h (0 Bft)
28.10.2013 08:50 11,9 C 84 % 1013,2 hPa 0,0 l/m 0,6 km/h (0 Bft) N-NW 337 9,3 C 12,8 C 0,0 km/h (0 Bft)
28.10.2013 08:55 12,2 C 84 % 1013,2 hPa 0,0 l/m 0,3 km/h (0 Bft) W 270 9,6 C 13,1 C 0,0 km/h (0 Bft)
28.10.2013 09:00 12,3 C 84 % 1013,2 hPa 0,0 l/m 0,3 km/h (0 Bft) W-NW 292 9,7 C 13,3 C 0,0 km/h (0 Bft)
28.10.2013 09:05 12,5 C 83 % 1012,7 hPa 0,0 l/m 0,5 km/h (0 Bft) W-NW 292 9,7 C 13,5 C 0,0 km/h (0 Bft)
28.10.2013 09:10 12,7 C 83 % 1012,7 hPa 0,0 l/m 1,3 km/h (1 Bft) S-SW 202 9,9 C 13,7 C 4,3 km/h (1 Bft)
28.10.2013 09:15 12,9 C 81 % 1012,7 hPa 0,0 l/m 1,6 km/h (1 Bft) O-NO 67 9,7 C 13,8 C 0,0 km/h (0 Bft)
28.10.2013 09:20 12,9 C 81 % 1012,7 hPa 0,0 l/m 1,0 km/h (0 Bft) NO 45 9,7 C 13,8 C 0,0 km/h (0 Bft)
28.10.2013 09:25 12,9 C 80 % 1012,4 hPa 0,0 l/m 0,5 km/h (0 Bft) S 180 9,5 C 13,9 C 0,0 km/h (0 Bft)
28.10.2013 09:30 13,0 C 79 % 1012,4 hPa 0,0 l/m 0,3 km/h (0 Bft) S 180 9,4 C 14,0 C 0,0 km/h (0 Bft)
28.10.2013 09:35 13,2 C 79 % 1012,4 hPa 0,0 l/m 0,2 km/h (0 Bft) S 180 9,6 C 14,1 C 0,0 km/h (0 Bft)
28.10.2013 09:40 13,3 C 79 % 1012,4 hPa 0,0 l/m 0,2 km/h (0 Bft) S 180 9,7 C 14,3 C 0,0 km/h (0 Bft)
28.10.2013 09:45 13,6 C 78 % 1012,4 hPa 0,0 l/m 0,5 km/h (0 Bft) S-SW 202 9,8 C 14,5 C 0,0 km/h (0 Bft)
28.10.2013 09:50 13,8 C 78 % 1012,4 hPa 0,0 l/m 0,8 km/h (0 Bft) S 180 10,0 C 14,7 C 3,7 km/h (1 Bft)
28.10.2013 09:55 13,8 C 77 % 1012,4 hPa 0,0 l/m 1,6 km/h (1 Bft) S 180 9,8 C 15,0 C 2,3 km/h (1 Bft)
28.10.2013 10:00 13,9 C 77 % 1012,4 hPa 0,0 l/m 2,1 km/h (1 Bft) S 180 9,9 C 15,0 C 0,0 km/h (0 Bft)
28.10.2013 10:05 14,0 C 76 % 1012,1 hPa 0,0 l/m 2,3 km/h (1 Bft) S 180 9,8 C 15,2 C 4,3 km/h (1 Bft)
28.10.2013 10:10 14,1 C 75 % 1012,1 hPa 0,0 l/m 2,4 km/h (1 Bft) S-SW 202 9,7 C 15,2 C 1,8 km/h (1 Bft)
28.10.2013 10:15 14,2 C 75 % 1012,1 hPa 0,0 l/m 2,1 km/h (1 Bft) S-SW 202 9,8 C 15,1 C 2,9 km/h (1 Bft)
28.10.2013 10:20 14,2 C 75 % 1012,1 hPa 0,0 l/m 1,8 km/h (1 Bft) S 180 9,8 C 15,2 C 2,7 km/h (1 Bft)
28.10.2013 10:25 14,3 C 75 % 1012,3 hPa 0,0 l/m 2,4 km/h (1 Bft) S 180 9,9 C 15,2 C 1,6 km/h (1 Bft)
28.10.2013 10:30 14,5 C 75 % 1012,3 hPa 0,0 l/m 1,8 km/h (1 Bft) S 180 10,1 C 15,4 C 0,0 km/h (0 Bft)
28.10.2013 10:35 15,1 C 75 % 1012,3 hPa 0,0 l/m 0,3 km/h (0 Bft) S 180 10,7 C 15,9 C 0,0 km/h (0 Bft)
28.10.2013 10:40 15,6 C 75 % 1012,3 hPa 0,0 l/m 0,3 km/h (0 Bft) S 180 11,2 C 17,3 C 2,4 km/h (1 Bft)
28.10.2013 10:45 15,4 C 74 % 1012,3 hPa 0,0 l/m 0,3 km/h (0 Bft) SW 225 10,8 C 19,8 C 0,0 km/h (0 Bft)
28.10.2013 10:50 14,9 C 72 % 1012,3 hPa 0,0 l/m 1,3 km/h (1 Bft) N-NW 337 9,9 C 21,1 C 4,0 km/h (1 Bft)
28.10.2013 10:55 14,9 C 74 % 1012,3 hPa 0,0 l/m 1,4 km/h (1 Bft) N 360 10,3 C 22,1 C 2,6 km/h (1 Bft)
28.10.2013 11:00 15,3 C 73 % 1012,3 hPa 0,0 l/m 1,3 km/h (1 Bft) N-NO 22 10,5 C 22,7 C 0,0 km/h (0 Bft)
28.10.2013 11:05 14,9 C 73 % 1012,9 hPa 0,0 l/m 1,6 km/h (1 Bft) NO 45 10,1 C 22,1 C 0,0 km/h (0 Bft)
28.10.2013 11:10 14,9 C 74 % 1012,9 hPa 0,0 l/m 1,4 km/h (1 Bft) NO 45 10,3 C 20,6 C 3,4 km/h (1 Bft)
28.10.2013 11:15 15,2 C 73 % 1012,9 hPa 0,0 l/m 1,9 km/h (1 Bft) NO 45 10,4 C 18,8 C 0,0 km/h (0 Bft)
28.10.2013 11:20 15,4 C 73 % 1012,9 hPa 0,0 l/m 2,1 km/h (1 Bft) NO 45 10,6 C 18,2 C 2,7 km/h (1 Bft)
28.10.2013 11:25 16,3 C 71 % 1012,4 hPa 0,0 l/m 2,4 km/h (1 Bft) NO 45 11,0 C 18,0 C 2,9 km/h (1 Bft)
28.10.2013 11:30 16,8 C 70 % 1012,4 hPa 0,0 l/m 1,9 km/h (1 Bft) NO 45 11,3 C 18,8 C 0,0 km/h (0 Bft)
28.10.2013 11:35 17,7 C 69 % 1012,4 hPa 0,0 l/m 0,6 km/h (0 Bft) N-NO 22 11,9 C 20,1 C 0,0 km/h (0 Bft)
28.10.2013 11:40 18,2 C 69 % 1012,4 hPa 0,0 l/m 0,2 km/h (0 Bft) NO 45 12,4 C 21,2 C 0,0 km/h (0 Bft)
28.10.2013 11:45 18,6 C 68 % 1012,9 hPa 0,0 l/m 0,2 km/h (0 Bft) NO 45 12,6 C 22,4 C 1,8 km/h (1 Bft)
28.10.2013 11:50 18,6 C 67 % 1012,9 hPa 0,0 l/m 0,3 km/h (0 Bft) NO 45 12,3 C 23,2 C 2,3 km/h (1 Bft)
28.10.2013 11:55 18,6 C 65 % 1012,9 hPa 0,0 l/m 0,8 km/h (0 Bft) NO 45 11,9 C 24,3 C 3,1 km/h (1 Bft)
28.10.2013 11:58 18,4 C 66 % 1012,9 hPa 0,0 l/m 1,8 km/h (1 Bft) S-SO 157 11,9 C 24,8 C 3,2 km/h (1 Bft)
28.10.2013 12:00 18,4 C 66 % 1012,9 hPa 0,0 l/m 1,8 km/h (1 Bft) S-SO 157 11,9 C 24,8 C 3,2 km/h (1 Bft)
28.10.2013 12:05 18,6 C 65 % 1012,9 hPa 0,0 l/m 2,7 km/h (1 Bft) S 180 11,9 C 25,1 C 7,1 km/h (2 Bft)
28.10.2013 12:10 18,6 C 66 % 1012,9 hPa 0,0 l/m 4,2 km/h (1 Bft) S 180 12,1 C 25,3 C 4,0 km/h (1 Bft)
28.10.2013 12:15 18,7 C 57 % 1012,9 hPa 0,0 l/m 6,3 km/h (2 Bft) S-SW 202 10,0 C 25,0 C 14,2 km/h (3 Bft)
28.10.2013 12:20 18,5 C 56 % 1012,9 hPa 0,0 l/m 7,9 km/h (2 Bft) SW 225 9,6 C 24,0 C 7,4 km/h (2 Bft)
28.10.2013 12:25 18,3 C 55 % 1013,2 hPa 0,0 l/m 8,0 km/h (2 Bft) S-SW 202 9,1 C 23,2 C 6,9 km/h (2 Bft)
28.10.2013 12:30 18,3 C 55 % 1013,2 hPa 0,0 l/m 7,4 km/h (2 Bft) S 180 9,1 C 23,4 C 8,5 km/h (2 Bft)
28.10.2013 12:35 18,3 C 54 % 1013,2 hPa 0,0 l/m 7,4 km/h (2 Bft) S 180 8,8 C 23,5 C 14,5 km/h (3 Bft)
28.10.2013 12:40 18,4 C 53 % 1013,2 hPa 0,0 l/m 8,4 km/h (2 Bft) S 180 8,6 C 23,1 C 12,7 km/h (3 Bft)
28.10.2013 12:45 18,8 C 53 % 1013,4 hPa 0,0 l/m 10,1 km/h (2 Bft) S-SO 157 9,0 C 22,2 C 17,4 km/h (3 Bft)
28.10.2013 12:50 18,6 C 53 % 1013,4 hPa 0,0 l/m 10,3 km/h (2 Bft) S 180 8,8 C 21,9 C 8,9 km/h (2 Bft)
28.10.2013 12:55 19,0 C 54 % 1013,4 hPa 0,0 l/m 8,0 km/h (2 Bft) S 180 9,5 C 22,7 C 6,8 km/h (2 Bft)
28.10.2013 13:00 18,8 C 54 % 1013,4 hPa 0,0 l/m 6,4 km/h (2 Bft) S-SW 202 9,3 C 23,6 C 8,9 km/h (2 Bft)
28.10.2013 13:05 18,5 C 56 % 1013,4 hPa 0,0 l/m 6,4 km/h (2 Bft) S-SW 202 9,6 C 23,8 C 8,2 km/h (2 Bft)
28.10.2013 13:10 18,5 C 57 % 1013,4 hPa 0,0 l/m 6,4 km/h (2 Bft) S 180 9,8 C 23,9 C 6,6 km/h (2 Bft)
28.10.2013 13:15 18,4 C 57 % 1013,4 hPa 0,0 l/m 6,1 km/h (2 Bft) S 180 9,7 C 23,8 C 7,7 km/h (2 Bft)
28.10.2013 13:20 18,4 C 58 % 1013,4 hPa 0,0 l/m 6,4 km/h (2 Bft) S-SO 157 10,0 C 23,8 C 8,9 km/h (2 Bft)
28.10.2013 13:25 18,3 C 56 % 1012,7 hPa 0,0 l/m 7,1 km/h (2 Bft) S-SW 202 9,4 C 22,5 C 6,4 km/h (2 Bft)
28.10.2013 13:30 18,0 C 56 % 1012,7 hPa 0,0 l/m 6,6 km/h (2 Bft) W-SW 247 9,1 C 21,6 C 6,6 km/h (2 Bft)
28.10.2013 13:35 18,0 C 56 % 1012,7 hPa 0,0 l/m 5,5 km/h (1 Bft) S 180 9,1 C 20,9 C 7,9 km/h (2 Bft)
28.10.2013 13:40 17,8 C 56 % 1012,7 hPa 0,0 l/m 5,5 km/h (1 Bft) W-SW 247 8,9 C 20,3 C 7,1 km/h (2 Bft)
28.10.2013 13:45 17,9 C 56 % 1012,4 hPa 0,0 l/m 5,5 km/h (1 Bft) SW 225 9,0 C 20,0 C 7,9 km/h (2 Bft)
28.10.2013 13:50 17,8 C 57 % 1012,4 hPa 0,0 l/m 5,3 km/h (1 Bft) W-SW 247 9,2 C 20,2 C 5,3 km/h (1 Bft)
28.10.2013 13:55 17,9 C 57 % 1012,4 hPa 0,0 l/m 5,5 km/h (1 Bft) S-SW 202 9,3 C 20,1 C 9,0 km/h (2 Bft)
28.10.2013 14:00 17,8 C 57 % 1012,4 hPa 0,0 l/m 5,5 km/h (1 Bft) W 270 9,2 C 20,1 C 6,9 km/h (2 Bft)
28.10.2013 14:05 18,0 C 57 % 1012,3 hPa 0,0 l/m 5,3 km/h (1 Bft) S 180 9,4 C 20,8 C 6,9 km/h (2 Bft)
28.10.2013 14:10 17,8 C 57 % 1012,3 hPa 0,0 l/m 6,4 km/h (2 Bft) S 180 9,2 C 20,6 C 10,1 km/h (2 Bft)
28.10.2013 14:15 17,8 C 55 % 1012,3 hPa 0,0 l/m 6,9 km/h (2 Bft) S-SW 202 8,6 C 20,0 C 7,2 km/h (2 Bft)
28.10.2013 14:20 17,5 C 57 % 1012,3 hPa 0,0 l/m 6,1 km/h (2 Bft) O-SO 112 8,9 C 20,3 C 3,4 km/h (1 Bft)
28.10.2013 14:25 17,8 C 53 % 1012,5 hPa 0,0 l/m 4,2 km/h (1 Bft) S 180 8,1 C 21,7 C 6,1 km/h (2 Bft)
28.10.2013 14:30 17,6 C 55 % 1012,5 hPa 0,0 l/m 4,0 km/h (1 Bft) S 180 8,5 C 22,4 C 7,1 km/h (2 Bft)
28.10.2013 14:35 17,9 C 53 % 1012,5 hPa 0,0 l/m 5,6 km/h (1 Bft) S 180 8,2 C 21,3 C 3,9 km/h (1 Bft)
28.10.2013 14:40 17,7 C 54 % 1012,5 hPa 0,0 l/m 6,0 km/h (2 Bft) S 180 8,3 C 20,9 C 7,2 km/h (2 Bft)
28.10.2013 14:45 17,5 C 55 % 1012,4 hPa 0,0 l/m 6,1 km/h (2 Bft) S 180 8,4 C 20,5 C 10,0 km/h (2 Bft)
28.10.2013 14:50 17,8 C 54 % 1012,4 hPa 0,0 l/m 6,6 km/h (2 Bft) S-SO 157 8,4 C 20,4 C 6,9 km/h (2 Bft)
28.10.2013 14:55 17,5 C 55 % 1012,4 hPa 0,0 l/m 6,1 km/h (2 Bft) S-SO 157 8,4 C 20,1 C 9,8 km/h (2 Bft)
28.10.2013 15:00 17,8 C 54 % 1012,4 hPa 0,0 l/m 5,8 km/h (2 Bft) S-SO 157 8,4 C 19,9 C 7,4 km/h (2 Bft)
28.10.2013 15:05 17,7 C 53 % 1012,9 hPa 0,0 l/m 5,5 km/h (1 Bft) S 180 8,0 C 19,9 C 5,3 km/h (1 Bft)
28.10.2013 15:10 17,8 C 53 % 1012,9 hPa 0,0 l/m 5,0 km/h (1 Bft) S-SW 202 8,1 C 20,1 C 2,6 km/h (1 Bft)
28.10.2013 15:15 17,3 C 55 % 1012,9 hPa 0,0 l/m 3,9 km/h (1 Bft) SW 225 8,2 C 20,2 C 1,8 km/h (1 Bft)
28.10.2013 15:20 17,2 C 55 % 1012,9 hPa 0,0 l/m 2,9 km/h (1 Bft) S 180 8,1 C 20,1 C 4,0 km/h (1 Bft)
28.10.2013 15:25 17,0 C 56 % 1012,9 hPa 0,0 l/m 2,6 km/h (1 Bft) SO 135 8,2 C 20,3 C 2,7 km/h (1 Bft)
28.10.2013 15:30 16,8 C 57 % 1012,9 hPa 0,0 l/m 2,6 km/h (1 Bft) S 180 8,2 C 20,3 C 6,8 km/h (2 Bft)
28.10.2013 15:35 16,5 C 57 % 1012,9 hPa 0,0 l/m 3,4 km/h (1 Bft) O-SO 112 8,0 C 19,5 C 4,7 km/h (1 Bft)
28.10.2013 15:40 16,7 C 57 % 1012,9 hPa 0,0 l/m 3,7 km/h (1 Bft) S-SO 157 8,1 C 19,1 C 6,1 km/h (2 Bft)
28.10.2013 15:45 16,4 C 56 % 1012,9 hPa 0,0 l/m 4,3 km/h (1 Bft) S-SO 157 7,6 C 18,6 C 11,7 km/h (2 Bft)
28.10.2013 15:50 16,6 C 55 % 1012,9 hPa 0,0 l/m 4,8 km/h (1 Bft) O-SO 112 7,5 C 18,4 C 3,9 km/h (1 Bft)
28.10.2013 15:55 16,2 C 55 % 1012,9 hPa 0,0 l/m 4,8 km/h (1 Bft) O-SO 112 7,2 C 18,0 C 3,2 km/h (1 Bft)
28.10.2013 16:00 16,1 C 56 % 1012,9 hPa 0,0 l/m 3,4 km/h (1 Bft) O-NO 67 7,3 C 17,7 C 2,1 km/h (1 Bft)
28.10.2013 16:05 16,1 C 57 % 1012,8 hPa 0,0 l/m 2,9 km/h (1 Bft) O-SO 112 7,6 C 17,5 C 2,7 km/h (1 Bft)
28.10.2013 16:10 16,1 C 57 % 1012,8 hPa 0,0 l/m 2,6 km/h (1 Bft) SO 135 7,6 C 17,3 C 2,3 km/h (1 Bft)
28.10.2013 16:15 16,1 C 58 % 1012,8 hPa 0,0 l/m 2,4 km/h (1 Bft) O 90 7,8 C 17,0 C 3,4 km/h (1 Bft)
28.10.2013 16:20 15,8 C 59 % 1012,8 hPa 0,0 l/m 3,9 km/h (1 Bft) O-SO 112 7,8 C 16,6 C 3,2 km/h (1 Bft)
28.10.2013 16:25 15,4 C 61 % 1012,6 hPa 0,0 l/m 3,5 km/h (1 Bft) S 180 7,9 C 16,2 C 3,1 km/h (1 Bft)
28.10.2013 16:30 15,4 C 61 % 1012,6 hPa 0,0 l/m 2,9 km/h (1 Bft) O-SO 112 7,9 C 16,1 C 1,8 km/h (1 Bft)
28.10.2013 16:35 14,9 C 62 % 1012,6 hPa 0,0 l/m 1,1 km/h (1 Bft) O-SO 112 7,7 C 15,7 C 0,0 km/h (0 Bft)
28.10.2013 16:40 14,7 C 63 % 1012,6 hPa 0,0 l/m 0,8 km/h (0 Bft) O-SO 112 7,7 C 15,6 C 0,0 km/h (0 Bft)
28.10.2013 16:45 13,9 C 64 % 1012,8 hPa 0,0 l/m 0,5 km/h (0 Bft) NO 45 7,2 C 15,0 C 0,0 km/h (0 Bft)
28.10.2013 16:50 14,1 C 65 % 1012,8 hPa 0,0 l/m 0,5 km/h (0 Bft) NO 45 7,6 C 15,0 C 0,0 km/h (0 Bft)
28.10.2013 16:55 14,6 C 64 % 1012,8 hPa 0,0 l/m 3,5 km/h (1 Bft) O-NO 67 7,9 C 14,6 C 5,6 km/h (1 Bft)
28.10.2013 16:59 14,7 C 64 % 1012,8 hPa 0,0 l/m 4,8 km/h (1 Bft) O-NO 67 8,0 C 14,6 C 5,0 km/h (1 Bft)
28.10.2013 17:00 14,7 C 64 % 1012,8 hPa 0,0 l/m 4,8 km/h (1 Bft) O-NO 67 8,0 C 14,6 C 5,0 km/h (1 Bft)
28.10.2013 17:05 14,2 C 65 % 1013,1 hPa 0,0 l/m 2,9 km/h (1 Bft) NO 45 7,7 C 14,1 C 1,8 km/h (1 Bft)
28.10.2013 17:10 13,2 C 66 % 1013,1 hPa 0,0 l/m 1,6 km/h (1 Bft) N-NO 22 7,0 C 13,7 C 0,0 km/h (0 Bft)
28.10.2013 17:15 12,6 C 69 % 1013,1 hPa 0,0 l/m 1,0 km/h (0 Bft) O-NO 67 7,1 C 13,0 C 4,5 km/h (1 Bft)
28.10.2013 17:20 12,6 C 69 % 1013,1 hPa 0,0 l/m 0,6 km/h (0 Bft) NO 45 7,1 C 12,8 C 0,0 km/h (0 Bft)
28.10.2013 17:25 11,8 C 71 % 1013,3 hPa 0,0 l/m 0,6 km/h (0 Bft) NO 45 6,7 C 12,6 C 0,0 km/h (0 Bft)
28.10.2013 17:30 11,7 C 72 % 1013,3 hPa 0,0 l/m 0,3 km/h (0 Bft) O 90 6,8 C 12,2 C 0,0 km/h (0 Bft)
28.10.2013 17:35 12,4 C 72 % 1013,3 hPa 0,0 l/m 1,0 km/h (0 Bft) O-SO 112 7,5 C 12,2 C 3,9 km/h (1 Bft)
28.10.2013 17:40 13,4 C 69 % 1013,3 hPa 0,0 l/m 1,9 km/h (1 Bft) NO 45 7,8 C 12,4 C 6,1 km/h (2 Bft)
28.10.2013 17:45 13,4 C 67 % 1013,4 hPa 0,0 l/m 4,5 km/h (1 Bft) O 90 7,4 C 13,0 C 4,2 km/h (1 Bft)
28.10.2013 17:50 13,2 C 67 % 1013,4 hPa 0,0 l/m 4,5 km/h (1 Bft) O 90 7,2 C 13,1 C 3,5 km/h (1 Bft)
28.10.2013 17:55 12,8 C 69 % 1013,4 hPa 0,0 l/m 3,9 km/h (1 Bft) O 90 7,3 C 13,0 C 4,7 km/h (1 Bft)
28.10.2013 18:00 12,2 C 69 % 1013,4 hPa 0,0 l/m 2,9 km/h (1 Bft) O 90 6,7 C 12,7 C 2,9 km/h (1 Bft)
28.10.2013 18:05 12,9 C 69 % 1013,5 hPa 0,0 l/m 2,9 km/h (1 Bft) W 270 7,4 C 12,4 C 2,9 km/h (1 Bft)
28.10.2013 18:10 13,4 C 66 % 1013,5 hPa 0,0 l/m 3,2 km/h (1 Bft) O 90 7,2 C 12,5 C 2,1 km/h (1 Bft)
28.10.2013 18:15 13,2 C 65 % 1013,5 hPa 0,0 l/m 3,2 km/h (1 Bft) O 90 6,8 C 12,6 C 6,0 km/h (2 Bft)
28.10.2013 18:20 13,5 C 64 % 1013,5 hPa 0,0 l/m 3,4 km/h (1 Bft) O 90 6,8 C 12,9 C 5,6 km/h (1 Bft)
28.10.2013 18:25 12,8 C 66 % 1013,5 hPa 0,0 l/m 3,7 km/h (1 Bft) O-NO 67 6,6 C 12,9 C 4,3 km/h (1 Bft)
28.10.2013 18:30 12,5 C 67 % 1013,5 hPa 0,0 l/m 3,9 km/h (1 Bft) O-SO 112 6,5 C 12,7 C 4,2 km/h (1 Bft)
28.10.2013 18:35 12,4 C 68 % 1013,5 hPa 0,0 l/m 3,7 km/h (1 Bft) O-NO 67 6,7 C 12,4 C 5,5 km/h (1 Bft)
28.10.2013 18:40 12,4 C 68 % 1013,5 hPa 0,0 l/m 3,7 km/h (1 Bft) O 90 6,7 C 12,3 C 5,0 km/h (1 Bft)
28.10.2013 18:45 12,0 C 69 % 1013,4 hPa 0,0 l/m 3,2 km/h (1 Bft) O-NO 67 6,5 C 12,0 C 4,0 km/h (1 Bft)
28.10.2013 18:50 11,8 C 70 % 1013,4 hPa 0,0 l/m 2,7 km/h (1 Bft) O-SO 112 6,5 C 11,9 C 4,0 km/h (1 Bft)
28.10.2013 18:55 11,9 C 71 % 1013,4 hPa 0,0 l/m 3,5 km/h (1 Bft) SO 135 6,8 C 11,9 C 4,5 km/h (1 Bft)
28.10.2013 19:00 11,9 C 71 % 1013,4 hPa 0,0 l/m 3,9 km/h (1 Bft) NO 45 6,8 C 11,8 C 5,0 km/h (1 Bft)
28.10.2013 19:05 12,3 C 69 % 1013,6 hPa 0,0 l/m 3,9 km/h (1 Bft) O-NO 67 6,8 C 11,8 C 5,1 km/h (1 Bft)
28.10.2013 19:10 12,1 C 69 % 1013,6 hPa 0,0 l/m 3,9 km/h (1 Bft) O 90 6,6 C 11,9 C 5,6 km/h (1 Bft)
28.10.2013 19:15 12,0 C 69 % 1013,6 hPa 0,0 l/m 4,0 km/h (1 Bft) O 90 6,5 C 11,8 C 5,1 km/h (1 Bft)
28.10.2013 19:20 12,2 C 68 % 1013,6 hPa 0,0 l/m 4,2 km/h (1 Bft) O-NO 67 6,5 C 11,9 C 6,0 km/h (2 Bft)
28.10.2013 19:25 12,7 C 66 % 1013,8 hPa 0,0 l/m 4,3 km/h (1 Bft) O-NO 67 6,5 C 12,2 C 5,0 km/h (1 Bft)
28.10.2013 19:30 12,8 C 65 % 1013,8 hPa 0,0 l/m 4,5 km/h (1 Bft) O-SO 112 6,4 C 12,4 C 4,7 km/h (1 Bft)
28.10.2013 19:35 13,0 C 62 % 1013,8 hPa 0,0 l/m 4,3 km/h (1 Bft) O-SO 112 5,9 C 12,8 C 5,3 km/h (1 Bft)
28.10.2013 19:40 13,1 C 60 % 1013,8 hPa 0,0 l/m 4,2 km/h (1 Bft) SO 135 5,5 C 13,1 C 5,1 km/h (1 Bft)
28.10.2013 19:45 13,0 C 59 % 1013,8 hPa 0,0 l/m 3,7 km/h (1 Bft) O-SO 112 5,2 C 13,2 C 5,3 km/h (1 Bft)
28.10.2013 19:50 13,0 C 59 % 1013,8 hPa 0,0 l/m 3,4 km/h (1 Bft) S-SO 157 5,2 C 13,3 C 2,6 km/h (1 Bft)
28.10.2013 19:55 11,4 C 65 % 1013,8 hPa 0,0 l/m 2,4 km/h (1 Bft) O-SO 112 5,1 C 13,0 C 5,3 km/h (1 Bft)
28.10.2013 20:00 12,0 C 64 % 1013,8 hPa 0,0 l/m 2,3 km/h (1 Bft) SO 135 5,4 C 12,8 C 1,6 km/h (1 Bft)
28.10.2013 20:05 11,3 C 65 % 1014,0 hPa 0,0 l/m 2,6 km/h (1 Bft) SO 135 5,0 C 13,0 C 0,0 km/h (0 Bft)
28.10.2013 20:10 10,5 C 67 % 1014,0 hPa 0,0 l/m 1,6 km/h (1 Bft) W-SW 247 4,6 C 12,5 C 0,0 km/h (0 Bft)
28.10.2013 20:15 10,0 C 68 % 1014,0 hPa 0,0 l/m 0,2 km/h (0 Bft) S-SW 202 4,4 C 11,5 C 0,0 km/h (0 Bft)
28.10.2013 20:20 10,3 C 69 % 1014,0 hPa 0,0 l/m 0,3 km/h (0 Bft) S-SO 157 4,9 C 11,2 C 0,0 km/h (0 Bft)
28.10.2013 20:25 9,9 C 70 % 1014,3 hPa 0,0 l/m 0,2 km/h (0 Bft) S-SW 202 4,7 C 11,1 C 0,0 km/h (0 Bft)
28.10.2013 20:30 10,0 C 70 % 1014,3 hPa 0,0 l/m 0,2 km/h (0 Bft) SO 135 4,8 C 10,7 C 2,1 km/h (1 Bft)
28.10.2013 20:35 11,7 C 67 % 1014,3 hPa 0,0 l/m 1,3 km/h (1 Bft) O-SO 112 5,8 C 10,5 C 2,7 km/h (1 Bft)
28.10.2013 20:40 11,9 C 66 % 1014,3 hPa 0,0 l/m 2,6 km/h (1 Bft) O-NO 67 5,8 C 10,7 C 4,7 km/h (1 Bft)
28.10.2013 20:45 11,8 C 65 % 1014,3 hPa 0,0 l/m 4,3 km/h (1 Bft) SO 135 5,4 C 11,0 C 2,3 km/h (1 Bft)
28.10.2013 20:50 10,5 C 67 % 1014,3 hPa 0,0 l/m 3,2 km/h (1 Bft) NO 45 4,6 C 10,8 C 5,1 km/h (1 Bft)
28.10.2013 20:55 10,0 C 68 % 1014,3 hPa 0,0 l/m 1,1 km/h (1 Bft) O-SO 112 4,4 C 10,1 C 0,0 km/h (0 Bft)
28.10.2013 21:00 10,4 C 71 % 1014,3 hPa 0,0 l/m 2,6 km/h (1 Bft) O 90 5,4 C 9,8 C 8,4 km/h (2 Bft)
28.10.2013 21:05 10,8 C 69 % 1014,5 hPa 0,0 l/m 4,0 km/h (1 Bft) NO 45 5,3 C 10,2 C 0,0 km/h (0 Bft)
28.10.2013 21:10 9,8 C 72 % 1014,5 hPa 0,0 l/m 4,2 km/h (1 Bft) O 90 5,0 C 9,8 C 6,3 km/h (2 Bft)
28.10.2013 21:15 10,8 C 71 % 1014,5 hPa 0,0 l/m 3,5 km/h (1 Bft) O 90 5,8 C 9,6 C 6,4 km/h (2 Bft)
28.10.2013 21:20 10,8 C 71 % 1014,5 hPa 0,0 l/m 5,0 km/h (1 Bft) O 90 5,8 C 9,5 C 5,8 km/h (2 Bft)
28.10.2013 21:25 11,1 C 69 % 1014,7 hPa 0,0 l/m 6,0 km/h (2 Bft) O 90 5,6 C 9,6 C 6,9 km/h (2 Bft)
28.10.2013 21:30 11,3 C 68 % 1014,7 hPa 0,0 l/m 5,3 km/h (1 Bft) S 180 5,6 C 9,9 C 6,0 km/h (2 Bft)
28.10.2013 21:35 11,6 C 67 % 1014,7 hPa 0,0 l/m 5,0 km/h (1 Bft) O-SO 112 5,7 C 10,9 C 4,7 km/h (1 Bft)
28.10.2013 21:40 11,5 C 66 % 1014,7 hPa 0,0 l/m 5,5 km/h (1 Bft) O-NO 67 5,4 C 11,1 C 6,6 km/h (2 Bft)
28.10.2013 21:45 11,6 C 66 % 1014,9 hPa 0,0 l/m 4,7 km/h (1 Bft) O-SO 112 5,5 C 11,4 C 4,5 km/h (1 Bft)
28.10.2013 21:50 11,7 C 65 % 1014,9 hPa 0,0 l/m 4,5 km/h (1 Bft) O 90 5,3 C 11,5 C 7,1 km/h (2 Bft)
28.10.2013 21:54 11,6 C 65 % 1014,9 hPa 0,0 l/m 5,1 km/h (1 Bft) O-SO 112 5,2 C 11,4 C 5,3 km/h (1 Bft)
28.10.2013 21:55 11,6 C 65 % 1014,9 hPa 0,0 l/m 5,1 km/h (1 Bft) O-SO 112 5,2 C 11,4 C 5,3 km/h (1 Bft)
28.10.2013 22:00 11,7 C 65 % 1014,9 hPa 0,0 l/m 5,3 km/h (1 Bft) O 90 5,3 C 11,3 C 5,3 km/h (1 Bft)
28.10.2013 22:05 11,5 C 65 % 1015,2 hPa 0,0 l/m 5,0 km/h (1 Bft) O 90 5,2 C 11,4 C 6,3 km/h (2 Bft)
28.10.2013 22:10 11,5 C 65 % 1015,2 hPa 0,0 l/m 4,7 km/h (1 Bft) O-SO 112 5,2 C 11,4 C 3,9 km/h (1 Bft)
28.10.2013 22:15 11,3 C 65 % 1015,2 hPa 0,0 l/m 4,2 km/h (1 Bft) O 90 5,0 C 11,3 C 2,9 km/h (1 Bft)
28.10.2013 22:20 11,1 C 66 % 1015,2 hPa 0,0 l/m 3,9 km/h (1 Bft) O 90 5,0 C 11,2 C 3,9 km/h (1 Bft)
28.10.2013 22:25 11,1 C 66 % 1015,1 hPa 0,0 l/m 3,4 km/h (1 Bft) O-SO 112 5,0 C 11,0 C 2,9 km/h (1 Bft)
28.10.2013 22:30 10,8 C 67 % 1015,1 hPa 0,0 l/m 3,1 km/h (1 Bft) O 90 4,9 C 10,8 C 3,9 km/h (1 Bft)
28.10.2013 22:35 10,5 C 68 % 1015,1 hPa 0,0 l/m 2,4 km/h (1 Bft) O-SO 112 4,8 C 10,6 C 4,2 km/h (1 Bft)
28.10.2013 22:40 9,9 C 69 % 1015,1 hPa 0,0 l/m 2,1 km/h (1 Bft) NO 45 4,5 C 10,5 C 3,4 km/h (1 Bft)
28.10.2013 22:45 10,5 C 70 % 1015,3 hPa 0,0 l/m 2,1 km/h (1 Bft) O-SO 112 5,3 C 10,4 C 4,2 km/h (1 Bft)
28.10.2013 22:50 10,6 C 70 % 1015,3 hPa 0,0 l/m 2,4 km/h (1 Bft) NO 45 5,4 C 10,3 C 3,7 km/h (1 Bft)
28.10.2013 22:55 10,4 C 70 % 1015,3 hPa 0,0 l/m 2,6 km/h (1 Bft) O 90 5,2 C 10,3 C 1,8 km/h (1 Bft)
28.10.2013 23:00 10,2 C 71 % 1015,3 hPa 0,0 l/m 1,9 km/h (1 Bft) NO 45 5,2 C 10,2 C 2,1 km/h (1 Bft)
28.10.2013 23:05 10,1 C 72 % 1015,5 hPa 0,0 l/m 1,3 km/h (1 Bft) O-SO 112 5,3 C 9,9 C 2,9 km/h (1 Bft)
28.10.2013 23:10 9,7 C 72 % 1015,5 hPa 0,0 l/m 1,4 km/h (1 Bft) O-NO 67 4,9 C 9,7 C 3,2 km/h (1 Bft)
28.10.2013 23:15 8,8 C 73 % 1015,5 hPa 0,0 l/m 1,6 km/h (1 Bft) W-SW 247 4,2 C 9,5 C 0,0 km/h (0 Bft)
28.10.2013 23:20 8,7 C 75 % 1015,5 hPa 0,0 l/m 2,4 km/h (1 Bft) SW 225 4,5 C 9,0 C 3,4 km/h (1 Bft)
28.10.2013 23:25 8,8 C 76 % 1015,8 hPa 0,0 l/m 1,9 km/h (1 Bft) S-SO 157 4,8 C 9,3 C 3,5 km/h (1 Bft)
28.10.2013 23:30 8,6 C 77 % 1015,8 hPa 0,0 l/m 1,8 km/h (1 Bft) SO 135 4,8 C 9,4 C 9,3 km/h (2 Bft)
28.10.2013 23:35 10,0 C 78 % 1015,8 hPa 0,0 l/m 2,7 km/h (1 Bft) O-SO 112 6,3 C 9,9 C 3,1 km/h (1 Bft)
28.10.2013 23:40 10,0 C 77 % 1015,8 hPa 0,0 l/m 3,2 km/h (1 Bft) O 90 6,2 C 10,0 C 2,3 km/h (1 Bft)
28.10.2013 23:45 10,3 C 77 % 1015,7 hPa 0,0 l/m 2,7 km/h (1 Bft) O-SO 112 6,4 C 10,1 C 4,2 km/h (1 Bft)
28.10.2013 23:50 10,4 C 77 % 1015,7 hPa 0,0 l/m 3,2 km/h (1 Bft) S-SO 157 6,5 C 10,4 C 3,1 km/h (1 Bft)
28.10.2013 23:55 10,7 C 78 % 1015,7 hPa 0,0 l/m 3,7 km/h (1 Bft) SO 135 7,0 C 10,7 C 7,4 km/h (2 Bft)
_ Min-Zeit 23:30 15:10 10:20 - 05:30 - - 23:15 23:20 23:15
Minimum _ 8,6 C 53 % 1012,1 hPa - 0,0 km/h (0 Bft) - - 4,2 C 9,0 C 0,0 km/h (0 Bft)
_ Max-Zeit 12:55 02:00 02:00 23:55 12:50 - - 11:45 12:10 12:45
Maximum _ 19,0 C 94 % 1017,9 hPa 0,0 l/m 10,3 km/h
S (2 Bft)
- - 12,6 C 25,3 C 17,4 km/h
S-SO (3 Bft)
Durchschnitt _ 12,7 C 75 % 1014,4 hPa #0,0 l/m 2,7 km/h (1 Bft) S - 8,1 C 13,8 C 3,3 km/h (1 Bft)